EDT,Max TemperatureF,Mean TemperatureF,Min TemperatureF,Max Dew PointF,MeanDew PointF,Min DewpointF,Max Humidity, Mean Humidity, Min Humidity, Max Sea Level PressureIn, Mean Sea Level PressureIn, Min Sea Level PressureIn, Max VisibilityMiles, Mean VisibilityMiles, Min VisibilityMiles, Max Wind SpeedMPH, Mean Wind SpeedMPH, Max Gust SpeedMPH,PrecipitationIn, CloudCover, Events, WindDirDegrees
2013-5-1,71,61,51,52,37,27,88,47,19,30.42,30.37,30.32,10,10,10,12,3,18,0.00,3,,142
2013-5-2,73,58,42,43,37,30,87,49,22,30.45,30.40,30.33,10,10,10,13,2,17,0.00,0,,147
2013-5-3,69,55,41,46,40,34,100,58,33,30.40,30.34,30.28,10,10,2,13,4,21,0.00,0,,133
2013-5-4,69,55,41,43,38,34,93,56,30,30.35,30.27,30.18,10,10,10,14,4,23,0.00,2,,128
2013-5-5,68,54,41,41,36,27,93,53,21,30.26,30.20,30.13,10,10,10,15,2,18,0.00,0,,115
2013-5-6,59,50,41,54,46,37,94,80,62,30.20,30.15,30.09,10,9,2,9,2,,0.00,6,,30
2013-5-7,60,58,57,59,55,54,100,86,77,30.09,30.04,29.97,10,8,2,12,7,20,0.00,8,,30
2013-5-8,69,60,50,55,51,46,100,78,46,30.06,30.00,29.95,10,8,0,12,3,16,0.00,5,,162
2013-5-9,73,62,51,55,52,48,100,74,43,30.06,30.00,29.95,10,9,5,12,2,22,0.00,4,,282
2013-5-10,80,65,50,63,55,48,100,84,39,30.07,30.00,29.90,10,7,0,17,1,,0.00,2,,174
2013-5-11,71,65,59,63,55,45,100,78,46,29.90,29.84,29.80,10,7,0,13,3,23,0.00,6,,227
2013-5-12,59,54,46,45,29,21,67,42,28,30.08,29.95,29.84,10,10,7,24,9,29,0.00,2,,279
2013-5-13,53,47,37,32,24,18,75,41,26,30.22,30.13,30.08,10,10,10,17,6,31,0.00,1,,291
2013-5-14,64,48,32,34,31,27,100,57,26,30.26,30.16,30.03,10,10,0,8,1,,0.00,2,,128
2013-5-15,89,68,46,54,46,34,87,49,26,30.04,29.88,29.74,10,10,10,18,4,34,0.00,1,,247
2013-5-16,80,71,60,59,53,46,88,55,32,30.02,29.91,29.81,10,10,4,22,10,39,0.00,1,,241
2013-5-17,84,68,51,59,52,43,100,63,23,30.16,30.10,30.02,10,8,2,9,1,,0.00,1,,49
2013-5-18,71,65,59,59,53,45,88,65,46,30.24,30.19,30.16,10,10,10,8,3,,0.00,5,,33
2013-5-19,64,62,59,61,58,55,94,87,82,30.23,30.18,30.10,10,10,3,6,2,,0.00,8,,26
2013-5-20,86,73,60,68,62,59,100,76,40,30.14,30.07,30.00,10,9,2,9,1,,0.00,3,,160
2013-5-21,89,76,62,68,62,55,100,70,31,30.05,29.97,29.88,10,7,0,10,2,17,0.00,3,,170
2013-5-22,89,76,62,64,61,54,100,71,29,29.97,29.93,29.86,10,9,1,28,3,39,0.00,1,,175
2013-5-23,80,71,62,64,61,50,100,80,37,29.93,29.87,29.79,10,8,1,23,3,32,0.00,3,,189
2013-5-24,66,55,44,55,37,27,82,58,44,30.29,30.09,29.85,10,10,5,22,10,38,0.00,7,,322
2013-5-25,62,52,41,32,30,27,66,45,27,30.30,30.25,30.19,10,10,10,20,8,32,0.00,3,,318
2013-5-26,69,55,41,37,32,28,76,42,23,30.30,30.26,30.21,10,10,10,15,6,23,0.00,0,,327
2013-5-27,62,50,39,50,42,36,93,65,39,30.35,30.29,30.22,10,10,10,8,2,,0.00,1,,117
2013-5-28,78,64,51,64,56,50,94,80,54,30.23,30.15,30.08,10,10,7,8,1,,0.00,1,,348
2013-5-29,89,74,60,64,57,52,100,62,29,30.16,30.13,30.11,10,6,0,16,3,23,0.00,3,,245
2013-5-30,91,75,59,64,60,55,94,62,29,30.26,30.20,30.15,10,10,5,8,1,,0.00,0,,156
2013-5-31,91,76,60,64,59,52,100,62,26,30.22,30.13,30.04,10,8,0,10,2,,0.00,1,,152